Weather History for Fort Myers, FL

Change the Weather History Date:

Saturday, February 23, 2013

  Actual Average Record
Temperature  
Mean Temperature 77 °F 68 °F  
Max Temperature 84 °F 78 °F 89 °F (1962)
Min Temperature 69 °F 57 °F 32 °F (1978)
Degree Days  
Heating Degree Days 0 2  
Month to date heating degree days 44 52  
Since 1 July heating degree days 116 253  
Cooling Degree Days 12 4  
Month to date cooling degree days 94 82  
Year to date cooling degree days 270 165  
Growing Degree Days 26 (Base 50)    
Moisture  
Dew Point 70 °F    
Average Humidity 86    
Maximum Humidity 100    
Minimum Humidity 61    
Precipitation  
Precipitation 0.00 in 0.08 in 2.27 in (1990)
Month to date precipitation 1.84 1.72  
Year to date precipitation 2.46 3.66  
Sea Level Pressure  
Sea Level Pressure 29.97 in    
Wind  
Wind Speed 8 mph (South)    
Max Wind Speed 21 mph    
Max Gust Speed 26 mph    
Visibility 8 miles    
Events      
T = Trace of Precipitation, MM = Missing Value Source: NWS Daily Summary

Daily Weather History Graph

Daily Weather History Graph

Search for Another Location

Airport:

Trip Planner

Search our weather history database for the weather conditions in past years. The results will help you decide how hot, cold, wet, or windy it might be!

Date:

Astronomy

Feb. 23, 2013 Rise Set
Actual Time 6:56 AM EST 6:25 PM EST
Civil Twilight 6:33 AM EST 6:48 PM EST
Nautical Twilight 6:06 AM EST 7:15 PM EST
Astronomical Twilight 5:39 AM EST 7:42 PM EST
Moon 4:39 PM EST (2/23) 5:10 AM EST (2/23)
Length of Visible Light 12h 15m
Length of Day
11h 28m
Waxing Gibbous, 95% of the Moon is Illuminated
Feb 23
Waxing Gibbous
Feb 25
Full
Mar 4
Last Quarter
Mar 11
New
Mar 19
First Quarter

Hourly Weather History & Observations

Time (EST) Temp. Heat Index Dew Point Humidity Pressure Visibility Wind Dir Wind Speed Gust Speed Precip Events Conditions
12:53 AM 69.1 °F - 66.9 °F 93% 30.03 in 10.0 mi SE 4.6 mph - N/A   Clear
1:53 AM 69.1 °F - 68.0 °F 96% 30.01 in 10.0 mi SSE 4.6 mph - N/A   Clear
2:07 AM 69.8 °F - 68.0 °F 94% 30.00 in 10.0 mi SSE 4.6 mph - N/A   Partly Cloudy
2:34 AM 69.8 °F - 68.0 °F 94% 29.99 in 10.0 mi SSE 5.8 mph - N/A   Mostly Cloudy
2:53 AM 70.0 °F - 68.0 °F 93% 29.99 in 10.0 mi SSE 6.9 mph - N/A   Overcast
3:53 AM 71.1 °F - 69.1 °F 93% 29.99 in 10.0 mi SSE 6.9 mph - N/A   Overcast
4:53 AM 71.1 °F - 69.1 °F 93% 29.98 in 10.0 mi SSE 6.9 mph - N/A   Overcast
5:53 AM 70.0 °F - 68.0 °F 93% 29.99 in 10.0 mi SE 6.9 mph - N/A   Overcast
6:37 AM 69.8 °F - 68.0 °F 94% 29.98 in 10.0 mi SSE 5.8 mph - N/A   Scattered Clouds
6:53 AM 69.1 °F - 68.0 °F 96% 29.99 in 9.0 mi SE 4.6 mph - N/A   Partly Cloudy
7:17 AM 69.8 °F - 68.0 °F 94% 29.99 in 8.0 mi SE 6.9 mph - N/A   Mostly Cloudy
7:53 AM 70.0 °F - 69.1 °F 97% 30.00 in 8.0 mi SSE 8.1 mph - N/A   Overcast
8:53 AM 73.9 °F - 70.0 °F 87% 30.02 in 10.0 mi SSE 5.8 mph - N/A   Scattered Clouds
9:53 AM 78.1 °F - 69.1 °F 74% 30.02 in 10.0 mi South 11.5 mph - N/A   Scattered Clouds
10:53 AM 82.0 °F 85.5 °F 69.1 °F 65% 30.01 in 10.0 mi South 10.4 mph - N/A   Scattered Clouds
11:53 AM 82.9 °F 86.5 °F 69.1 °F 63% 30.00 in 10.0 mi SSW 15.0 mph 25.3 mph N/A   Partly Cloudy
12:53 PM 84.0 °F 87.8 °F 69.1 °F 61% 29.98 in 10.0 mi South 15.0 mph 25.3 mph N/A   Scattered Clouds
1:53 PM 82.9 °F 87.0 °F 70.0 °F 65% 29.96 in 10.0 mi SSW 16.1 mph 24.2 mph N/A   Partly Cloudy
2:53 PM 81.0 °F 84.4 °F 70.0 °F 69% 29.94 in 10.0 mi SW 15.0 mph 21.9 mph N/A   Mostly Cloudy
3:27 PM 80.6 °F 84.6 °F 71.6 °F 74% 29.93 in 10.0 mi SSW 9.2 mph 19.6 mph N/A   Mostly Cloudy
3:53 PM 81.0 °F 84.9 °F 71.1 °F 72% 29.94 in 10.0 mi SSW 11.5 mph - N/A   Mostly Cloudy
4:21 PM 78.8 °F - 71.6 °F 78% 29.93 in 10.0 mi SSW 12.7 mph 19.6 mph N/A   Scattered Clouds
4:53 PM 80.1 °F 83.6 °F 71.1 °F 74% 29.93 in 10.0 mi SW 10.4 mph - N/A   Mostly Cloudy
5:13 PM 78.8 °F - 71.6 °F 78% 29.92 in 10.0 mi SW 11.5 mph - N/A   Scattered Clouds
5:29 PM 78.8 °F - 71.6 °F 78% 29.92 in 10.0 mi SSW 11.5 mph - N/A   Mostly Cloudy
5:53 PM 77.0 °F - 71.1 °F 82% 29.94 in 10.0 mi SSW 9.2 mph - N/A   Scattered Clouds
6:53 PM 75.0 °F - 71.1 °F 87% 29.95 in 10.0 mi SSW 6.9 mph - N/A   Clear
7:53 PM 73.9 °F - 71.1 °F 91% 29.96 in 9.0 mi SW 4.6 mph - N/A   Clear
8:53 PM 73.0 °F - 70.0 °F 90% 29.97 in 8.0 mi Calm Calm - N/A   Clear
9:53 PM 72.0 °F - 70.0 °F 93% 29.98 in 7.0 mi Calm Calm - N/A   Clear
10:34 PM 71.6 °F - 69.8 °F 94% 29.98 in 6.0 mi SSW 3.5 mph - N/A   Scattered Clouds
10:45 PM 71.6 °F - 69.8 °F 94% 29.97 in 6.0 mi South 4.6 mph - N/A   Mostly Cloudy
10:53 PM 72.0 °F - 70.0 °F 93% 29.98 in 4.0 mi SSW 4.6 mph - N/A   Overcast
11:04 PM 71.6 °F - 71.6 °F 100% 29.97 in 2.0 mi SSW 6.9 mph - N/A   Overcast
11:20 PM 71.6 °F - 69.8 °F 94% 29.97 in 3.0 mi SSW 6.9 mph - N/A   Overcast
11:44 PM 71.6 °F - 69.8 °F 94% 29.97 in 2.5 mi SW 4.6 mph - N/A   Overcast
11:53 PM 72.0 °F - 70.0 °F 93% 29.98 in 2.5 mi SW 5.8 mph - N/A   Overcast